Lexington Weather

Lexington, Massachusetts, USA

44°F
4/22/2024 9:10am 
  • Lexington Conditions: Clear
  • Temperature: 44.1°F / 6.7°CWarmer 3.5°F than last hour.
  • Dew Point: 27.1°FDecreased 0.8°Fsince last hour.
  • Relative Humidity: 51%Decreased 9.0% since last hour.
  • Wind: Calm, 10-min avg: Calm, gust: 4 mph
  • Barometer: 29.96 in Steady
  • Visibility: 10 miles
  • Rain Today: 0.00 in
  •   

Regional Weather Roundup
for Boston, MA

        
000
ASUS41 KBOX 161910
RWRBOX

REGIONAL WEATHER ROUNDUP
NATIONAL WEATHER SERVICE BOSTON/NORTON MA
300 PM EDT TUE APR 16 2024

NOTE:  "FAIR" INDICATES FEW OR NO CLOUDS BELOW 12,000 FEET WITH NO 
SIGNIFICANT WEATHER AND/OR OBSTRUCTIONS TO VISIBILITY.

MAZALL-162000-
EASTERN MASSACHUSETTS
  
CITY           SKY/WX    TMP DP  RH WIND       PRES   REMARKS
BOSTON         PTSUNNY   67  33  28 W9G17     30.04S                  
BEVERLY        MOSUNNY   66  32  28 W14G23    30.03S                  
LAWRENCE       MOSUNNY   64  30  27 W8G17     30.05S                  
BEDFORD        MOSUNNY   66  30  26 W13G25    30.03S                  
NORWOOD        MOSUNNY   68  33  27 W10G24    30.04S                  
MARSHFIELD     MOSUNNY   61  34  36 VRB3G12   30.04S                  
PLYMOUTH       PTSUNNY   69  32  25 NW12      30.03F                  
TAUNTON        SUNNY     70  30  22 VRB6      30.04S                  
NEW BEDFORD    MOSUNNY   69  32  25 MISG      30.04F                  
$$

MAZALL-162000-
CAPE COD AND THE ISLANDS
  
CITY           SKY/WX    TMP DP  RH WIND       PRES   REMARKS
FALMOUTH       MOSUNNY   63  36  36 S12       30.05F                  
HYANNIS        SUNNY     60  38  43 S6        30.05S                  
CHATHAM        SUNNY     61  39  44 SW8       30.07S                  
PROVINCETOWN   SUNNY     63  35  35 VRB5      30.06F                  
NANTUCKET      SUNNY     58  41  53 SW10      30.08S                  
MARTHAS VNYRD  SUNNY     62  35  36 SW16G25   30.06S                  
$$
 
MAZALL-162000-
CENTRAL AND WESTERN MASSACHUSETTS
  
CITY           SKY/WX    TMP DP  RH WIND       PRES   REMARKS
WORCESTER      MOSUNNY   64  27  24 NW17G26   30.06S                  
FITCHBURG      MOSUNNY   65  29  25 NW16G25   30.06S                  
ORANGE         PTSUNNY   66  30  26 W13G21    30.07F                  
SPRINGFIELD    MOSUNNY   67  27  22 N15G21    30.04S                  
WESTFIELD      MOSUNNY   67  29  24 NW18G25   30.07F                  
NORTH ADAMS    CLOUDY    62  32  32 W14G22    30.09F                  
PITTSFIELD     SUNNY     61  28  28 NW17G33   30.09S                  
$$
 
RIZALL-162000-
RHODE ISLAND
  
CITY           SKY/WX    TMP DP  RH WIND       PRES   REMARKS
PROVIDENCE     MOSUNNY   68  32  26 NW12G21   30.06S                  
NEWPORT        SUNNY     60  37  42 S12       30.07S                  
BLOCK ISLAND   SUNNY     63  35  35 W16       30.09S                  
SMITHFIELD     MOSUNNY   66  31  27 W12       30.06S                  
WESTERLY       MOSUNNY   66  35  31 W14G24    30.07S                  
$$
 
CTZALL-162000-
CONNECTICUT
  
CITY           SKY/WX    TMP DP  RH WIND       PRES   REMARKS
BRADLEY INTL   PTSUNNY   70  31  23 NW14G25   30.08S                  
HARTFORD       MOSUNNY   69  33  26 NW15G24   30.07F                  
PLAINVILLE     FAIR      67  29  24 W9G18     30.08F                  
BRIDGEPORT     SUNNY     66  34  30 SW9       30.09F                  
DANBURY        SUNNY     67  31  26 NW12G17   30.10F                  
GROTON         SUNNY     63  41  44 SW14      30.06F                  
NEW HAVEN      SUNNY     69  33  26 W15G22    30.09S                  
CHESTER        SUNNY     68  27  21 W14G25    30.08F                  
MERIDEN        SUNNY     68  27  21 W15G23    30.08F                  
WILLIMANTIC    SUNNY     66  29  24 NW13G26   30.10R                  
OXFORD         MOSUNNY   63  33  32 VRB7      30.11S                  
$$

MEZ002-015-021-024-NHZ003-005-008-011-012-014-VTZ005-008-162000-
NORTHERN NEW ENGLAND
  
CITY           SKY/WX    TMP DP  RH WIND       PRES   REMARKS
PORTLAND ME    MOSUNNY   64  32  30 NW10G21   30.01R                  
BANGOR ME      MOSUNNY   56  31  38 NW10G25   30.01R                  
CONCORD NH     MOSUNNY   64  30  27 NW20G26   30.05S                  
MANCHESTER NH  MOSUNNY   67  27  22 NW17G29   30.03S                  
NASHUA NH      MOSUNNY   66  27  23 NW15G25   30.05S                  
PORTSMOUTH NH  MOSUNNY   66  31  27 W17G26    30.02S                  
JAFFREY NH     MOSUNNY   63  28  26 W8G21     30.06F                  
KEENE NH       PTSUNNY   63  30  28 NW12G25   30.06F                  
BURLINGTON VT  MOSUNNY   59  34  39 N12       30.11S                  
MT. WASHINGTON CLOUDY    27  23  86 NW60G68     N/A  WCI   5          
$$

NYZ052-076-162000-
EASTERN NEW YORK
  
CITY           SKY/WX    TMP DP  RH WIND       PRES   REMARKS
ALBANY         MOSUNNY   66  33  29 W13G28    30.12F                  
NEW YORK CITY  MOSUNNY   68  26  20 NW14G22   30.09F                  
$$
 
ANZALL-162000-
MARINE OBSERVATIONS
  
STATION/POSITION TIME  TEMP    WIND        PRES    VSBY  WAVE
                       AIR SEA DIR/SP/G                  HT/PER
                 (UTC) (F)     (DEG/KT/KT) (MB)    (MI)  (FT/S)
BOSTON BUOY      1850   51     110/  4/  4 1017.1S         2/ 9
BUZZARDS BAY     1800   53     220/ 18/ 19 1018.7R
NANTUCKET SOUND  1850   51 47  170/  8/ 10 1017.9S         1/ 5
MASS BAY-STELLWA 1704   52 46  180/  6/  8 1017.4F  1 7/8  3/11
ISLE OF SHOALS   1800   58     300/ 17/ 18 1016.1R
S OF BLOCK IS    1856      47                N/A           5/ 8
$$

......................KEY.........................
  SKY/WX - SKY CONDITION/PRESENT WEATHER
  TMP    - TEMPERATURE IN FAHRENHEIT
  DWPT   - DEWPOINT IN FAHRENHEIT
  RH     - RELATIVE HUMIDITY IN PERCENT
  WIND   - DIRECTION AND SPEED IN MPH
  PRES   - MEAN SEA LEVEL PRESSURE IN INCHES OF HG
  WCI    - WIND CHILL INDEX
  VSB    - VISIBILITY IN MILES
  HX     - HEAT INDEX
  TC     - TEMPERATURE IN CELSIUS
  VRB    - VARIABLE WIND DIRECTION
  N/A    - NOT AVAILABLE
  
      

Other recent Regional Weather Roundups

Mon Apr 22, 8:10am EDT

Mon Apr 22, 7:10am EDT

Mon Apr 22, 6:10am EDT

Mon Apr 22, 5:10am EDT

Mon Apr 22, 4:10am EDT

Mon Apr 22, 3:10am EDT

Mon Apr 22, 2:10am EDT

Mon Apr 22, 1:10am EDT

Mon Apr 22, 12:10am EDT

Sun Apr 21, 11:10pm EDT

Sun Apr 21, 10:10pm EDT

Sun Apr 21, 9:10pm EDT

Sun Apr 21, 8:10pm EDT

Sun Apr 21, 7:10pm EDT

Sun Apr 21, 6:10pm EDT

Sun Apr 21, 5:10pm EDT

Sun Apr 21, 4:10pm EDT

Sun Apr 21, 3:10pm EDT

Sun Apr 21, 2:10pm EDT

Sun Apr 21, 1:10pm EDT

Sun Apr 21, 12:10pm EDT

Sun Apr 21, 11:10am EDT

Sun Apr 21, 10:10am EDT

Sun Apr 21, 9:10am EDT

Sun Apr 21, 8:10am EDT

Sun Apr 21, 7:10am EDT

Sun Apr 21, 6:10am EDT

Sun Apr 21, 5:10am EDT

Sun Apr 21, 4:10am EDT

Sun Apr 21, 3:10am EDT

Sun Apr 21, 2:10am EDT

Sun Apr 21, 1:10am EDT

Sun Apr 21, 12:10am EDT

Sat Apr 20, 11:10pm EDT

Sat Apr 20, 10:10pm EDT

Sat Apr 20, 9:10pm EDT

Sat Apr 20, 8:10pm EDT

Sat Apr 20, 7:10pm EDT

Sat Apr 20, 6:10pm EDT

Sat Apr 20, 5:10pm EDT

Sat Apr 20, 4:10pm EDT

Sat Apr 20, 3:10pm EDT

Sat Apr 20, 2:10pm EDT

Sat Apr 20, 1:10pm EDT

Sat Apr 20, 12:10pm EDT

Sat Apr 20, 11:10am EDT

Sat Apr 20, 10:10am EDT

Sat Apr 20, 9:10am EDT

Sat Apr 20, 8:10am EDT

Sat Apr 20, 7:10am EDT

Sat Apr 20, 6:10am EDT

Sat Apr 20, 5:10am EDT

Sat Apr 20, 4:10am EDT

Sat Apr 20, 3:10am EDT

Sat Apr 20, 2:10am EDT

Sat Apr 20, 1:10am EDT

Sat Apr 20, 12:10am EDT

Fri Apr 19, 11:10pm EDT

Fri Apr 19, 10:10pm EDT

Fri Apr 19, 9:10pm EDT

Fri Apr 19, 8:10pm EDT

Fri Apr 19, 7:10pm EDT

Fri Apr 19, 6:10pm EDT

Fri Apr 19, 5:10pm EDT

Fri Apr 19, 4:10pm EDT

Fri Apr 19, 3:10pm EDT

Fri Apr 19, 2:10pm EDT

Fri Apr 19, 1:10pm EDT

Fri Apr 19, 12:10pm EDT

Fri Apr 19, 11:10am EDT

Fri Apr 19, 10:10am EDT

Fri Apr 19, 9:10am EDT

Fri Apr 19, 8:10am EDT

Fri Apr 19, 7:10am EDT

Fri Apr 19, 6:10am EDT

Fri Apr 19, 5:10am EDT

Fri Apr 19, 4:10am EDT

Fri Apr 19, 3:10am EDT

Fri Apr 19, 2:10am EDT

Fri Apr 19, 1:10am EDT

Fri Apr 19, 12:10am EDT

Thu Apr 18, 11:10pm EDT

Thu Apr 18, 10:10pm EDT

Thu Apr 18, 9:10pm EDT

Thu Apr 18, 8:10pm EDT

Thu Apr 18, 7:10pm EDT

Thu Apr 18, 6:10pm EDT

Thu Apr 18, 5:10pm EDT

Thu Apr 18, 4:10pm EDT

Thu Apr 18, 3:10pm EDT

Thu Apr 18, 2:10pm EDT

Thu Apr 18, 1:10pm EDT

Thu Apr 18, 12:10pm EDT

Thu Apr 18, 11:10am EDT

Thu Apr 18, 10:10am EDT

Thu Apr 18, 9:10am EDT

Thu Apr 18, 8:10am EDT

Thu Apr 18, 7:10am EDT

Thu Apr 18, 6:10am EDT

Thu Apr 18, 5:10am EDT

Thu Apr 18, 4:10am EDT

Thu Apr 18, 3:10am EDT

Thu Apr 18, 2:10am EDT

Thu Apr 18, 1:10am EDT

Thu Apr 18, 12:10am EDT

Wed Apr 17, 11:10pm EDT

Wed Apr 17, 10:10pm EDT

Wed Apr 17, 9:10pm EDT

Wed Apr 17, 8:10pm EDT

Wed Apr 17, 7:10pm EDT

Wed Apr 17, 6:10pm EDT

Wed Apr 17, 5:10pm EDT

Wed Apr 17, 4:10pm EDT

Wed Apr 17, 3:10pm EDT

Wed Apr 17, 2:10pm EDT

Wed Apr 17, 1:10pm EDT

Wed Apr 17, 12:10pm EDT

Wed Apr 17, 11:10am EDT

Wed Apr 17, 10:10am EDT

Wed Apr 17, 9:10am EDT

Wed Apr 17, 8:10am EDT

Wed Apr 17, 7:10am EDT

Wed Apr 17, 6:10am EDT

Wed Apr 17, 5:10am EDT

Wed Apr 17, 4:10am EDT

Wed Apr 17, 3:10am EDT

Wed Apr 17, 2:10am EDT

Wed Apr 17, 1:10am EDT

Wed Apr 17, 12:10am EDT

Tue Apr 16, 11:10pm EDT

Tue Apr 16, 10:10pm EDT

Tue Apr 16, 9:10pm EDT

Tue Apr 16, 8:10pm EDT

Tue Apr 16, 7:10pm EDT

Tue Apr 16, 6:10pm EDT

Tue Apr 16, 5:10pm EDT

Tue Apr 16, 4:10pm EDT

Tue Apr 16, 2:10pm EDT

Tue Apr 16, 1:10pm EDT

Tue Apr 16, 12:10pm EDT

Tue Apr 16, 11:10am EDT

Tue Apr 16, 10:10am EDT

Tue Apr 16, 9:10am EDT

Tue Apr 16, 8:10am EDT

Tue Apr 16, 7:10am EDT

Tue Apr 16, 6:10am EDT

Tue Apr 16, 5:10am EDT

Tue Apr 16, 4:10am EDT

Tue Apr 16, 3:10am EDT

Tue Apr 16, 2:10am EDT

Tue Apr 16, 1:10am EDT

Tue Apr 16, 12:10am EDT

Mon Apr 15, 11:10pm EDT

Mon Apr 15, 10:10pm EDT

Mon Apr 15, 9:10pm EDT

Mon Apr 15, 8:10pm EDT

Mon Apr 15, 7:10pm EDT

Mon Apr 15, 6:10pm EDT

Mon Apr 15, 5:10pm EDT

Mon Apr 15, 4:10pm EDT

Mon Apr 15, 3:10pm EDT

Mon Apr 15, 2:10pm EDT

Mon Apr 15, 1:10pm EDT

Mon Apr 15, 12:10pm EDT

Mon Apr 15, 11:10am EDT

Mon Apr 15, 10:10am EDT

Mon Apr 15, 9:10am EDT